Home > Weather > Espoo > Past weeks

Flag for Finland Past Weather in Espoo, Finland — Yesterday and Last 2 Weeks

Now
72 °F

Sunny.


Feels Like: 72 °F
Forecast: 57 / 67 °F
Wind: 6 mph from Southeast

Location: Helsinki-Vantaa

Current Time: Jun 26, 2016 at 8:19:11 PM

Latest Report: Jun 26, 2016 at 7:50 PM


Visibility: 10 mi

Pressure: 29.86 "Hg

Humidity: 78%

Dew Point: 64 °F

Location of EspooLocation

Past Weather in Espoo — Graph

°F

Espoo Temperature Yesterday

Maximum temperature yesterday: 77 °F (at 5:20 PM)
Minimum temperature yesterday: 59 °F (at 3:20 AM)
Average temperature yesterday: 67 °F

High & Low Weather Summary for the Past Weeks

 TemperatureHumidityPressure
High79 °F (Jun 26, 1:20 PM)100% (Jun 16, 3:50 AM)30.24 "Hg (Jun 16, 3:50 AM)
Low41 °F (Jun 15, 4:50 AM)26% (Jun 14, 4:20 PM)29.30 "Hg (Jun 18, 6:50 AM)
Average61 °F75%29.86 "Hg
* Reported Jun 11 7:20 PM — Jun 26 7:20 PM, Espoo, Weather by CustomWeather, © 2016

Note: Actual official high and low records may vary slightly from our data, if they occured in-between our weather recording intervals... More about our weather records

Advertising

Espoo Weather History for the Previous 24 Hours

Scroll right to see more
 ConditionsComfort  
Time TempWeatherWind HumidityBarometerVisibility
7:20 PM
Sun, Jun 26
72 °FSunny.3 mph78%29.86 "Hg10 mi
6:50 PM73 °FSunny.7 mph74%29.86 "Hg10 mi
6:20 PM73 °FSunny.9 mph74%29.86 "Hg10 mi
5:50 PM73 °FPassing clouds.6 mph74%29.86 "HgN/A
5:20 PM73 °FBroken clouds.8 mph78%29.89 "HgN/A
4:50 PM72 °FSprinkles. Partly sunny.10 mph83%29.89 "HgN/A
4:20 PM73 °FSprinkles. Broken clouds.14 mph74%29.89 "HgN/A
3:50 PM75 °FPassing clouds.12 mph69%29.89 "HgN/A
3:20 PM75 °FBroken clouds.12 mph69%29.89 "HgN/A
2:50 PM77 °FBroken clouds.10 mph65%29.89 "HgN/A
2:20 PM77 °FPassing clouds.9 mph65%29.89 "HgN/A
1:50 PM79 °FBroken clouds.8 mph58%29.92 "HgN/A
1:20 PM79 °FPartly sunny.9 mph58%29.92 "HgN/A
12:50 PM77 °FPartly sunny.8 mph61%29.92 "HgN/A
12:20 PM77 °FBroken clouds.9 mph61%29.92 "HgN/A
11:50 AM77 °FPartly sunny.6 mph61%29.92 "HgN/A
11:20 AM77 °FScattered clouds.6 mph61%29.92 "HgN/A
10:50 AM75 °FPassing clouds.7 mph65%29.92 "HgN/A
10:20 AM73 °FPassing clouds.6 mph69%29.95 "HgN/A
9:50 AM73 °FPassing clouds.6 mph69%29.95 "HgN/A
9:20 AM72 °FSunny.6 mph73%29.92 "Hg10 mi
8:50 AM72 °FSunny.6 mph73%29.95 "Hg10 mi
8:20 AM68 °FSunny.7 mph83%29.95 "Hg10 mi
7:50 AM68 °FSunny.6 mph83%29.95 "Hg10 mi
7:20 AM66 °FPassing clouds.5 mph83%29.98 "HgN/A
6:50 AM64 °FSunny.5 mph88%29.98 "Hg10 mi
6:20 AM64 °FSunny.6 mph88%29.98 "Hg10 mi
5:50 AM63 °FSunny.3 mph94%29.98 "Hg10 mi
5:20 AM63 °FSunny.2 mph94%29.98 "Hg10 mi
4:50 AM63 °FClear.2 mph94%29.98 "Hg10 mi
4:20 AM63 °FClear.8 mph94%29.98 "Hg10 mi
3:50 AM63 °FFog.7 mph94%29.98 "HgN/A
3:20 AM63 °FFog.3 mph94%29.98 "HgN/A
2:50 AM63 °FFog.3 mph100%29.98 "HgN/A
2:20 AM61 °FFog.1 mph100%29.98 "HgN/A
1:50 AM63 °FFog.2 mph100%29.98 "HgN/A
1:20 AM64 °FFog.3 mph94%29.98 "HgN/A
12:50 AM64 °FFog.3 mph94%29.98 "HgN/A
12:20 AM66 °FClear.6 mph88%29.98 "Hg10 mi
11:50 PM
Sat, Jun 25
66 °FSunny.5 mph88%29.98 "Hg10 mi
11:20 PM66 °FSunny.7 mph88%29.98 "Hg10 mi
10:50 PM70 °FSunny.8 mph83%29.98 "Hg10 mi
10:20 PM72 °FSunny.8 mph78%29.95 "Hg10 mi
9:50 PM73 °FSunny.7 mph78%29.95 "Hg10 mi
9:20 PM75 °FPassing clouds.8 mph69%29.95 "HgN/A
8:50 PM75 °FPassing clouds.8 mph69%29.95 "HgN/A
8:20 PM75 °FPassing clouds.9 mph69%29.95 "HgN/A
Weather by CustomWeather, © 2016

See weather overviewHow to use our weather pages